Regional Weather Roundup
Issued by NWS Upton, NY

Current Version | Previous Version | Graphics & Text | Print | Product List | Glossary Off
Versions: 1 2 3 4 5 6 7 8 9 10 11 12 13 14 15 16 17 18 19 20 21 22 23 24 25 26 27 28 29 30 31 32 33 34 35 36 37 38 39 40 41 42 43 44 45 46 47 48 49

000
ASUS41 KOKX 270305
RWROKX

REGIONAL WEATHER ROUNDUP
NATIONAL WEATHER SERVICE NEW YORK NY
1000 PM EST THU FEB 26 2015

NOTE: "FAIR" INDICATES FEW OR NO CLOUDS BELOW 12,000 FEET WITH NO
SIGNIFICANT WEATHER AND/OR OBSTRUCTIONS TO VISIBILITY.

NYZ071-072-176-178-NJZ106-104-270400-
NEW YORK CITY METRO AREA


CITY           SKY/WX    TMP DP  RH WIND       PRES   REMARKS
CENTRAL PARK   MOCLDY    23  10  57 N9        30.15R WCI  13
LAGUARDIA APRT CLOUDY    24  13  62 NW9       30.14R WCI  14
KENNEDY INTL   MOCLDY    25  13  60 N10       30.14R WCI  15
NEWARK/LIBERTY MOCLDY    24  13  62 NW9       30.14R WCI  14
BRNX BOT. GARD   N/A    N/A N/A N/A W8        30.13S
TETERBORO      MOCLDY    22   9  57 N8        30.14R WCI  12
$$

NYZ177-179-078>081-270400-
LONG ISLAND NEW YORK

CITY           SKY/WX    TMP DP  RH WIND       PRES   REMARKS
FARMINGDALE    MOCLDY    24  13  62 N7        30.12R WCI  16
ISLIP          CLOUDY    24  14  65 NW8       30.10R WCI  15
SHIRLEY        MOCLDY    24  14  65 CALM      30.12R
WESTHAMPTON    CLOUDY    24  14  65 N3        30.12R
MONTAUK POINT    N/A     26  15  63 NE5       30.11R WCI  20
$$

NYZ052-065-067-270400-
HUDSON VALLEY

CITY           SKY/WX    TMP DP  RH WIND       PRES   REMARKS
WHITE PLAINS   MOCLDY    19   8  62 NW12      30.10R WCI   7
NEWBURGH       CLOUDY    18  10  73 CALM      30.11R
MONTGOMERY     PTCLDY    14   7  73 CALM      30.10R
POUGHKEEPSIE   CLOUDY    19   5  54 CALM      30.12R
ALBANY         FLURRIES  13  -4  46 NE10      30.16R WCI   0
$$

NJZ001-105-106-008-010-013-015-019>022-104-270400-
NEW JERSEY

CITY           SKY/WX    TMP DP  RH WIND       PRES   REMARKS
NEWARK/LIBERTY MOCLDY    24  13  62 NW9       30.14R WCI  14
TETERBORO      MOCLDY    22   9  57 N8        30.14R WCI  12
CALDWELL       PTCLDY    20  10  65 CALM      30.14R
MORRISTOWN     CLEAR     19  12  73 CALM      30.14R
SOMERVILLE     MOCLDY    19  12  74 CALM      30.11R
SUSSEX         PTCLDY    15   8  73 CALM      30.10S
ANDOVER          N/A     12   8  84 CALM      30.10R
TRENTON        PTCLDY    23  13  65 CALM      30.12R
MILLVILLE      PTCLDY    18  15  88 CALM      30.13R
ATLANTIC CITY  CLEAR     20  15  81 CALM      30.13R
WRIGHTSTOWN    NOT AVBL
TOMS RIVER     CLEAR     19  14  79 CALM      30.13R
BELMAR         MOCLDY    21  14  73 NW5       30.12R WCI  15
$$

PAZ047>061-062-071-270400-
EASTERN PENNSYLVANIA

CITY           SKY/WX    TMP DP  RH WIND       PRES   REMARKS
PHILADELPHIA   MOCLDY    29  15  56 CALM      30.14R
ALLENTOWN      MOCLDY    21  11  65 N6        30.11R WCI  13
SCRANTON       CLOUDY    17   9  70 NW9       30.10R WCI   6
$$

CTZ002-004>006-009-010-012-RIZ004-006-007-MAZ004-011-015-270400-
SOUTHERN NEW ENGLAND
 IN CT

CITY           SKY/WX    TMP DP  RH WIND       PRES   REMARKS
BRADLEY INTL   CLOUDY    22   7  52 NW5       30.10R WCI  16
HARTFORD       CLOUDY    22  10  60 NW5       30.12R WCI  16
DANBURY        MOCLDY    17   4  56 W3        30.11R
WTRBRY/OXFORD  MOCLDY    18   3  53 CALM      30.08R
BRIDGEPORT     CLOUDY    23  13  65 NW6       30.12R WCI  16
MERIDEN        MOCLDY    22   9  57 NW7       30.12R WCI  13
NEW HAVEN      CLOUDY    24  13  62 CALM      30.11R
CHESTER        CLOUDY    23  12  63 N6        30.09R WCI  16
GROTON         CLOUDY    22  14  71 NW3       30.11R
WILLIMANTIC    CLOUDY    21   9  59 CALM      30.10R

 IN RI

CITY           SKY/WX    TMP DP  RH WIND       PRES   REMARKS
PROVIDENCE     CLOUDY    21  11  65 N3        30.11R
BLOCK ISLAND   CLOUDY    23  12  63 N6        30.08R WCI  16
WESTERLY       CLOUDY    22  14  71 CALM      30.11R

 IN MA

CITY           SKY/WX    TMP DP  RH WIND       PRES   REMARKS
BOSTON         CLOUDY    21   8  57 NW5       30.11R WCI  15
WORCESTER      CLOUDY    19  -1  41 NW5       30.03R WCI  12
WESTFIELD      CLOUDY    19   7  59 N7        30.09R WCI  10
PROVINCETOWN   PTCLDY    25  10  54 N13       30.08R WCI  13
NANTUCKET      CLOUDY    26  17  68 N14       30.06R WCI  14
$$

ANZ330-335-338-340-345-350-353-355-270400-
COASTAL MARINE OBSERVATIONS


STATION/POSITION TIME  SKY/WX   TEMP    WIND        PRES    VSBY  WAVE
                                AIR SEA DIR/SP/G                  HT/PER
                 (UTC)          (F)     (DEG/KT/KT) (MB)    (MI)  (FT/S)
NY HARB ENTRANCE 0300            29 38  330/ 10/ 14 1019.8          3/ 6
4S FIRE IS       NOT AVBL
20S FIRE ISLAND  0200               36              1019.1          5/ 6
23SW MTP         0300                                 N/A           4/ 6
HUDSON CANYON    NOT AVBL
EXECUTION ROCKS  NOT AVBL
WESTERN LI SOUND NOT AVBL
CENTRAL LI SOUND NOT AVBL
EASTERN LI SOUND NOT AVBL
ROBBINS REEF     0300            24     340/  9/ 11 1019.4
$$


>>>>>>>>>>>>>>>>>>>>>>>>>>>> KEY <<<<<<<<<<<<<<<<<<<<<<<<<<<
>                                                          <
>     SKY/WX - SKY CONDITION/PRESENT WEATHER               <
>     TMP    - TEMPERATURE IN FAHRENHEIT                   <
>     DP     - DEWPOINT IN FAHRENHEIT                      <
>     RH     - RELATIVE HUMIDITY IN PERCENT                <
>     WIND   - DIRECTION AND SPEED IN MPH                  <
>     PRES   - MEAN SEA LEVEL PRESSURE IN INCHES OF HG     <
>     WCI    - WIND CHILL INDEX                            <
>     VSB    - VISIBILITY IN MILES                         <
>     HX     - HEAT INDEX                                  <
>     TC     - TEMPERATURE IN CELSIUS                      <
>     VRB    - VARIABLE WIND DIRECTION                     <
>                                                          <
>>>>>>>>>>>>>>>>>>>>>>>>>>>> KEY <<<<<<<<<<<<<<<<<<<<<<<<<<<





USA.gov is the U.S. government's official web portal to all federal, state and local government web resources and services.